Location: Unspecified
(43.8044°N, 11.0278°E)
Time: 22:56:30
(UTC+01:00)

Okean 3 - Visible Passes

Search period start: 23 November 2014 00:00
Search period end: 03 December 2014 00:00
Orbit: 581 x 610 km, 82.5° (Epoch: 23 November)

Date Brightness Start Highest point End Pass type
(mag) Time Alt. Az. Time Alt. Az. Time Alt. Az.
23 Nov 6.6 18:30:48 10° W 18:31:57 11° WNW 18:33:05 10° NW visible
25 Nov 4.7 17:09:57 10° SSW 17:14:02 46° WNW 17:18:08 10° N visible
26 Nov 5.5 17:20:21 10° SW 17:24:05 30° WNW 17:27:50 10° NNW visible
27 Nov 6.1 17:31:03 10° WSW 17:34:11 20° WNW 17:37:20 10° NNW visible
28 Nov 6.3 17:42:14 10° W 17:44:20 13° WNW 17:46:27 10° NW visible
